loading
|

ELECTRON KICK STAGE R/B, 60353

Orbit data source: Space-Track

ELECTRON KICK STAGE R/B, 60353 is space debris in LEO originally from a launch on Fri, 02 Aug 2024 UTC launched from the Rocket Lab Launch Complex (RLLC). Debris objects in space refer to the collection of defunct objects orbiting the Earth. Examples of debris include non-operational satellites, rocket bodies, and fragments generated from explosions, collisions, or faulty payload assembly.

Loading next visibility...
Loading greatness...
ELECTRON KICK STAGE R/B details
Identifier
60353, 2024-137B
Orbit
LEO
Last TLE update14 hours ago
Origin
Flag of USRocket Lab (US)
ManufacturerRocket Lab
Mission statusUnknown
MissionUnknown
Bus & MotorKICK STAGE, CURIE
Mass~50 kg wet, ~50 kg dry
Launch date (UTC)
2024-08-02 (2 months ago)
Launch vehicleUnknown
Launch site
Rocket Lab Launch Complex (RLLC)
Object type
Payload
Rocket body
Debris
Radar Cross SectionMedium (>0.1 m² and <1 m²)

Expand to show TLE details & history

TLE from 14 hours ago
0 ELECTRON KICK STAGE R/B
1 60353U 24137B   24261.33817417  .00177914  00000-0  52960-2 0  9996
2 60353  43.0163 242.1359 0063819 314.6943  44.8723 15.31321645  6970
Epoch: 2024-09-17T08:06Z
Definitive object data (Epoch: 2024-09-17T08:06:58.248Z)
Latitude0.00002°
Longitude123.63896°
Altitude440.808 km
Speed7.666 km/s
True Right ascension16h 08m 32s
True Declination0° 00' 00"
Sunlit
Object was in daylight at TLE epoch
Predictive object data (real-time)
Latitude42.43574°
Longitude-162.75238°
Altitude497.029 km
Speed7.609 km/s
Apparent Right ascension00h 07m 58s
Apparent Declination4° 37' 09"
Sunlit
Object is in full shadow
Predictive observer data (real-time)
Local Sidereal Time15:22:06
Azimuth56.984° ENE
Elevation-27.039°
Doppler factor1
Orbital elements
Apogee517.542 km
Perigee430.085 km
Semi-major axis6,851.951 km
Eccentricity0.0063819
Inclination43.0163°
RAAN242.1359°
Arg. of periapsis314.6943°
True anomaly45.39119°
Mean anomaly44.8723°
Eccentric anomaly45.13145°
Mean motion3.82668 °/min
BSTAR0.005296
Period94.08 mins
No data available
Other satellites on launch #137 in the year 2024 (2024-08-02 UTC)

ELECTRON KICK STAGE R/B Visibility forecast

Observer location: 39.9160978°, -105.1181434

ELECTRON KICK STAGE R/B is not visible in the next 10 days
Span
Click to sort rows by Start time (UTC) header in descending order
Start Az.
Max El. time (UTC)
Max El. Az.
Max El.
End time (UTC)
End Az.